Location: Glencliff
(36.1226°N, 86.7183°W)
Time: 18:54:58
(UTC+00:00)

ARGOS - Pass Details

Date: 25 August 2019
Orbit: 820 x 835 km, 98.5° (Epoch: 16 September)

Event Time Altitude Azimuth Distance (km) Brightness Sun altitude
Exits shadow 01:18:36 12° 135° (SE) 2,287 4.9 -11.0°
Maximum altitude 01:23:07 37° 70° (ENE) 1,246 3.7 -11.8°
Drops below altitude 10° 01:28:00 10° 4° (N) 2,422 5.8 -12.7°
Sets 01:30:30 0° 357° (N) 3,358 6.7 -13.2°
